Regional Weather Roundup
Issued by NWS

Home | Current Version | Previous Version | Graphics & Text | Print | Product List | Glossary Off
Versions: 1 2 3 4 5 6 7 8 9 10 11 12 13 14 15 16 17 18 19 20 21 22 23 24 25 26 27 28 29 30 31 32 33 34 35 36 37 38 39 40 41 42 43 44 45 46 47 48 49 50

000
ASUS43 KMPX 251810
RWRMN
WEATHER ROUNDUP FOR MINNESOTA
NATIONAL WEATHER SERVICE TWIN CITIES/CHANHASSEN MN
100 PM CDT THU MAY 25 2017


NOTE: "FAIR" INDICATES FEW OR NO CLOUDS BELOW 12,000 FEET WITH NO
SIGNIFICANT WEATHER AND/OR OBSTRUCTIONS TO VISIBILITY. N/A MEANS
CURRENT SKY AND/OR WEATHER CONDITIONS ARE NOT AVAILABLE.

MNZ060>063-068>070-251900-
   Twin Cities Metro

CITY           SKY/WX    TMP DP  RH WIND       PRES   REMARKS
TWIN CITIES    PTSUNNY   66  47  50 SE12      29.67F
6HR MIN TEMP:  52; 6HR MAX TEMP:  67;

ST PAUL        CLOUDY    64  50  60 S8        29.68S
CRYSTAL        CLOUDY    64  46  52 SE8       29.65F
BLAINE         PTSUNNY   70  48  46 SE12      29.67F
LAKEVILLE      CLOUDY    64  50  59 SE8       29.67S
EDEN PRAIRIE   CLOUDY    66  47  50 SE12      29.66S
6HR MIN TEMP:  52; 6HR MAX TEMP:  68;

SOUTH ST PAUL  CLOUDY    66  49  53 SE7       29.67S
LAKE ELMO      FAIR      64  52  63 S9        29.69S
$$
MNZ001>005-007-008-013>017-022>024-027-028-251900-
   Northwest Minnesota

CITY           SKY/WX    TMP DP  RH WIND       PRES   REMARKS
BEMIDJI        PTSUNNY   64  46  51 SE16G23   29.62F
HALLOCK        PTSUNNY   68  46  45 SE26      29.51F
ROSEAU         PTSUNNY   66  48  52 SE17G23   29.58F
WARROAD        CLOUDY    64  48  55 SE20G25   29.60F
THIEF RVR FALL PTSUNNY   65  45  48 SE18G33   29.56F
CROOKSTON      MOSUNNY   66  46  48 S22G29    29.53F
FOSSTON        MOSUNNY   64  45  48 SE15G22   29.58F
DETROIT LAKES  MOSUNNY   63  45  51 S23G29    29.58F
MOORHEAD       MOSUNNY   70  46  43 SE26G35   29.52S
PARK RAPIDS    LGT RAIN  64  42  44 SE18G28   29.61F
MAHNOMEN       MOCLDY    63  46  52 SE15G24   29.56F
$$
MNZ006-009>011-018-025>026-251900-
   North Central Minnesota

CITY           SKY/WX    TMP DP  RH WIND       PRES   REMARKS
BAUDETTE       CLOUDY    63  46  54 S16       29.62F
FLAG ISLAND    CLOUDY    57  48  72 SE10      29.61F
INTL FALLS     PTSUNNY   65  43  44 S12G25    29.65F
6HR MIN TEMP:  45; 6HR MAX TEMP:  67;

WASKISH        CLOUDY    64  48  55 SE12G18   29.63F
BIG FORK       MOSUNNY   66  46  48 SE9G21    29.66S
LONGVILLE      CLOUDY    64  46  52 SE13G20   29.65F
GRAND RAPIDS   CLOUDY    61  46  57 S12G20    29.69S
CRANE LAKE     PTSUNNY   64  45  48 SE3       29.70F
ORR            PTSUNNY   66  43  42 S12G24    29.66S
COOK           MOSUNNY   63  45  51 S12G18    29.69F
WALKER         MOCLDY    62  46  55 SE13      29.62F
$$
MNZ012-019>021-037-251900-
   Northeast Minnesota

CITY           SKY/WX    TMP DP  RH WIND       PRES   REMARKS
DULUTH         MOSUNNY   60  46  59 SE13G21   29.71F
6HR MIN TEMP:  45; 6HR MAX TEMP:  60;

ELY            PTSUNNY   61  43  51 SE9G17    29.71F
HIBBING        PTSUNNY   60  44  55 S9G21     29.69S
EVELETH        MOSUNNY   63  38  40 S15       29.70F
DULUTH HARBOR  MOSUNNY   48  45  87 NE9       29.73F
TWO HARBORS    MOSUNNY   63  48  59 E15       29.71F
SILVER BAY     CLOUDY    57  43  58 NE8       29.73F
GRAND MARAIS     N/A     53  40  61 NE6       29.76F
G MARAIS ARPRT PTSUNNY   59  39  47 SE8G16    29.77S
$$
MNZ029>031-032-039>041-046>048-054>057-064-251900-
   West Central Minnesota

CITY           SKY/WX    TMP DP  RH WIND       PRES   REMARKS
FERGUS FALLS   MOSUNNY   66  46  48 S22G33    29.53F
WHEATON        MOSUNNY   70  48  46 SE26G32   29.52F
MORRIS         MOSUNNY   66  52  59 SE29G37   29.55S
ALEXANDRIA     MOSUNNY   65  47  52 SE21G29   29.60F
ELBOW LAKE     PTSUNNY   65  49  55 SE25G32   29.56F
WADENA         CLOUDY    63  46  55 SE18G24   29.61S
GLENWOOD       MOSUNNY   66  48  52 S20G30    29.60F
APPLETON       SUNNY     68  48  49 S20G26    29.55S
BENSON         MOSUNNY   68  48  49 S20G28    29.58F
ORTONVILLE     MOSUNNY   68  50  52 SE18G28   29.52S
MADISON        MOSUNNY   72  52  49 S26G33    29.53F
WILLMAR        FAIR      68  48  49 SE20G31   29.61F
$$
MNZ033>034-036-042>043-049>051-058-059-251900-
   Central Minnesota

CITY           SKY/WX    TMP DP  RH WIND       PRES   REMARKS
ST CLOUD       CLOUDY    63  48  58 SE15      29.65F
6HR MIN TEMP:  48; 6HR MAX TEMP:  63;

SAUK CENTRE    MOCLDY    64  48  56 SE16G24   29.62F
PAYNESVILLE    PTSUNNY   64  46  51 SE16G23   29.63F
AITKIN         CLOUDY    63  46  55 SE12G17   29.66S
PINE RIVER     CLOUDY    64  50  59 SE13G23   29.68F
BRAINERD       CLOUDY    63  47  55 S15G21    29.65F
STAPLES        CLOUDY    63  45  51 S13G22    29.62F
LONG PRAIRIE   PTSUNNY   63  46  55 SE20G25   29.63F
LITTLE FALLS   CLOUDY    61  45  55 S12       29.65F
LITCHFIELD     MOSUNNY   64  50  59 SE14      29.64F
BUFFALO        CLOUDY    63  47  55 S7        29.67S
MAPLE LAKE     PTSUNNY   65  51  60 SE7       29.67S
HUTCHINSON     PTSUNNY   66  52  60 SE9       29.65F
$$
MNZ037-044-045-052-053-251900-
   East Central Minnesota

CITY           SKY/WX    TMP DP  RH WIND       PRES   REMARKS
PRINCETON      CLOUDY    64  48  55 SE10      29.67S
MORA           CLOUDY    63  46  55 SE9       29.69F
CAMBRIDGE      CLOUDY    66  50  55 SE8       29.66S
RUSH CITY      CLOUDY    65  48  55 S9        29.68F
MOOSE LAKE     PTSUNNY   64  45  48 S7G17     29.67S
HINCKLEY       MOCLDY    64  46  52 S7        29.68S
CLOQUET        MOSUNNY   61  43  51 E10G16    29.70S
MCGREGOR       CLOUDY    63  46  55 SE7       29.68S
$$
MNZ071>073-080-081-089-090-097-098-251900-
   Southwest Minnesota

CITY           SKY/WX    TMP DP  RH WIND       PRES   REMARKS
MONTEVIDEO     MOSUNNY   66  48  52 S13G26    29.56F
CANBY          SUNNY     69  51  51 S16G24    29.55S
MARSHALL       MOSUNNY   68  50  52 S25G32    29.56F
REDWOOD FALLS  CLOUDY    67  48  50 SE20      29.59F
OLIVIA         MOSUNNY   68  50  52 S18G25    29.60F
PIPESTONE      SUNNY     66  46  48 S22G31    29.54F
WINDOM         SUNNY     66  48  52 SE21G29   29.60F
WORTHINGTON    SUNNY     67  48  50 S21G29    29.59F
JACKSON        SUNNY     64  46  52 S18G25    29.63F
TRACY          MOSUNNY   67  52  59 S20G26    29.58F
SLAYTON        SUNNY     67  51  56 SE23G33   29.58F
$$
MNZ065>067-074>077-082>085-091>093-251900-
   South Central Minnesota

CITY           SKY/WX    TMP DP  RH WIND       PRES   REMARKS
MANKATO        PTSUNNY   64  49  57 SE16      29.65F
NEW ULM        MOSUNNY   66  48  52 SE16G24   29.63F
ST JAMES       MOSUNNY   66  48  52 SE17      29.64F
FAIRMONT       MOSUNNY   66  49  54 SE16G24   29.64F
GLENCOE        PTSUNNY   66  53  61 SE9G17    29.65F
FARIBAULT      CLOUDY    64  50  59 S12       29.68S
OWATONNA       PTSUNNY   64  50  59 S6        29.67S
WASECA         MOSUNNY   64  50  59 S12       29.68S
ALBERT LEA     SUNNY     64  50  59 S8        29.67F
$$
MNZ078>079-086>088-094>096-251900-
   Southeast Minnesota

CITY           SKY/WX    TMP DP  RH WIND       PRES   REMARKS
ROCHESTER      SUNNY     65  55  70 SE12G21   29.68F
6HR MIN TEMP:  50; 6HR MAX TEMP:  65;

RED WING       MOSUNNY   66  48  52 SE9       29.67S
STANTON        CLOUDY    65  50  57 S3        29.66S
DODGE CENTER   MOSUNNY   64  52  63 SE12      29.67F
WINONA         SUNNY     63  52  67 SE5       29.69F
AUSTIN         MOSUNNY   64  52  63 S6        29.67F
PRESTON        MOSUNNY   63  51  66 E7        29.69F
$$
ABBREVIATIONS USED IN REMARKS
   TC - TEMPERATURES IN CELSIUS
  WCI - WIND CHILL INDEX
   HX - HEAT INDEX
  VSB - VISIBILITY
$$




USA.gov is the U.S. government's official web portal to all federal, state and local government web resources and services.